Flag for China Weather past 2 weeks in Shanghai, Shanghai Municipality, China

Now
79 °F

Passing clouds.


Feels Like: 81 °F
Forecast: 74 / 87 °F
Wind: 6 mph from East

Location: Shanghai Hongqiao Airport

Current Time: Aug 31, 2015 at 10:12:45 PM

Latest Report: Aug 31, 2015 at 9:30 PM


Visibility: N/A

Pressure: 29.83 "Hg

Humidity: 74%

Dew point: 70 °F

Location of ShanghaiLocation

Historic Weather in Shanghai — Graph

°F

Shanghai temperature yesterday

Maximum temperature yesterday: 88 °F (at 12:00 PM)
Minimum temperature yesterday: 75 °F (at 3:30 AM)
Average temperature yesterday: 81 °F

Past Weeks' High & Low Weather Summary

 TemperatureHumidityPressure
High93 °F (Aug 19, 12:30 PM)100% (Aug 22, 9:00 AM)29.86 "Hg (Aug 22, 9:00 AM)
Low72 °F (Aug 24, 1:00 PM)43% (Aug 27, 2:00 PM)29.53 "Hg (Aug 24, 5:30 AM)
Average80 °F78%29.74 "Hg
* Reported Aug 16 8:00 PM — Aug 31 8:30 PM, Shanghai, Weather by CustomWeather, © 2015

Note: Actual official high and low records may vary slightly from our data, if they occured in-between our weather recording intervals... More about our weather records

Advertising

Shanghai weather history for previous 24 hours

 ConditionsComfort  
Time TempWeatherWind HumidityBarometerVisibility
8:30 PM
Mon, Aug 31
79 °FClear.8 mph74%29.80 "Hg10 mi
8:00 PM81 °FPassing clouds.8 mph70%29.80 "HgN/A
7:30 PM81 °FClear.10 mph66%29.80 "Hg10 mi
7:00 PM81 °FClear.10 mph66%29.80 "Hg10 mi
6:30 PM82 °FPassing clouds.8 mph66%29.77 "HgN/A
6:00 PM82 °FPassing clouds.8 mph66%29.77 "HgN/A
5:30 PM82 °FSunny.8 mph62%29.77 "Hg10 mi
5:00 PM84 °FPassing clouds.8 mph58%29.77 "HgN/A
4:30 PM84 °FPartly sunny.8 mph58%29.77 "HgN/A
4:00 PM86 °FPartly sunny.8 mph55%29.77 "HgN/A
3:30 PM86 °FPartly sunny.6 mph55%29.77 "HgN/A
3:00 PM86 °FPartly sunny.6 mph55%29.77 "HgN/A
2:30 PM86 °FPartly sunny.8 mph59%29.77 "HgN/A
2:00 PM86 °FPartly sunny.10 mph59%29.80 "HgN/A
1:30 PM86 °FPartly sunny.8 mph59%29.80 "HgN/A
1:00 PM84 °FPartly sunny.10 mph58%29.80 "HgN/A
12:30 PM84 °FPartly sunny.8 mph62%29.83 "HgN/A
12:00 PM86 °FScattered clouds.10 mph59%29.83 "HgN/A
11:30 AM86 °FScattered clouds.8 mph59%29.83 "HgN/A
11:00 AM84 °FScattered clouds.8 mph62%29.83 "HgN/A
10:30 AM86 °FScattered clouds.8 mph59%29.83 "HgN/A
10:00 AM84 °FScattered clouds.8 mph62%29.83 "HgN/A
9:30 AM82 °FScattered clouds.6 mph66%29.83 "HgN/A
9:00 AM82 °FScattered clouds.6 mph66%29.83 "HgN/A
8:30 AM81 °FScattered clouds.6 mph74%29.83 "Hg5 mi
8:00 AM81 °FScattered clouds.3 mph79%29.83 "Hg4 mi
7:30 AM79 °FPassing clouds.3 mph79%29.83 "Hg4 mi
7:00 AM79 °FFog.3 mph84%29.83 "Hg3 mi
6:30 AM75 °FFog.No wind94%29.83 "Hg3 mi
6:00 AM75 °FFog.No wind89%29.83 "Hg3 mi
5:30 AM75 °FFog.1 mph89%29.80 "Hg3 mi
5:00 AM75 °FClear.1 mph89%29.80 "Hg4 mi
4:30 AM77 °FClear.1 mph83%29.80 "Hg4 mi
4:00 AM77 °FClear.1 mph83%29.80 "Hg5 mi
3:30 AM77 °FClear.3 mph83%29.80 "Hg10 mi
3:00 AM77 °FClear.3 mph83%29.80 "Hg10 mi
2:30 AM77 °FClear.1 mph83%29.80 "Hg10 mi
2:00 AM75 °FClear.1 mph89%29.80 "Hg10 mi
1:30 AM75 °FClear.1 mph89%29.80 "Hg10 mi
1:00 AM77 °FClear.3 mph83%29.83 "Hg10 mi
12:30 AM77 °FClear.3 mph83%29.83 "Hg10 mi
12:00 AM77 °FPassing clouds.3 mph83%29.83 "HgN/A
11:30 PM
Sun, Aug 30
77 °FClear.3 mph83%29.83 "Hg10 mi
11:00 PM77 °FClear.3 mph83%29.83 "Hg10 mi
10:30 PM79 °FClear.3 mph79%29.83 "Hg10 mi
10:00 PM79 °FClear.6 mph74%29.83 "Hg10 mi
Weather by CustomWeather, © 2015

See weather overviewHow to use our weather pages